Roseau, MN

11:08 PM CDT on March 29, 2017 (GMT -0500)
Roseau Municipal-Billberg

Weather History for KROX - April, 2013

Change the Weather History Date:

Thursday, April 4, 2013

  Actual Average Record
Temperature  
Mean Temperature 24 °F -  
Max Temperature 32 °F 41 °F 67 °F (1991)
Min Temperature 17 °F 21 °F -3 °F (1982)
Degree Days  
Heating Degree Days 40    
Moisture  
Dew Point 19 °F    
Average Humidity 68    
Maximum Humidity 86    
Minimum Humidity 51    
Precipitation  
Precipitation 0.00 in - - ()
Sea Level Pressure  
Sea Level Pressure 30.13 in    
Wind  
Wind Speed 9 mph (NW)    
Max Wind Speed 17 mph    
Max Gust Speed 20 mph    
Visibility 10 miles    
Events      
Averages and records for this station are not official NWS values.
T = Trace of Precipitation, MM = Missing Value Source: NWS Daily Summary

Daily Weather History Graph

Daily Weather History Graph

Search for Another Location

Airport or City:

Trip Planner

Search our weather history database for the weather conditions in past years. The results will help you decide how hot, cold, wet, or windy it might be!

Date:

Astronomy

Apr. 04, 2013 Rise Set
Actual Time 6:53 AM CDT 7:58 PM CDT
Civil Twilight 6:21 AM CDT 8:30 PM CDT
Nautical Twilight 5:42 AM CDT 9:09 PM CDT
Astronomical Twilight 5:01 AM CDT 9:51 PM CDT
Moon 3:49 AM CDT (4/4) 1:51 PM CDT (4/4)
Length of Visible Light 14h 09m
Length of Day
13h 05m
Waning Crescent, 33% of the Moon is Illuminated
Apr 4
Waning Crescent
Apr 10
New
Apr 18
First Quarter
Apr 25
Full
May 2
Last Quarter

Hourly Weather History & Observations

Time (CDT) Temp. Windchill Dew Point Humidity Pressure Visibility Wind Dir Wind Speed Gust Speed Precip Events Conditions
12:14 AM 32.0 °F 24.8 °F 26.6 °F 80% 29.94 in 7.0 mi West 8.1 mph - N/A   Clear
12:34 AM 30.2 °F 23.4 °F 26.6 °F 86% 29.94 in 7.0 mi West 6.9 mph - N/A   Clear
12:54 AM 30.2 °F 22.6 °F 26.6 °F 86% 29.95 in 7.0 mi West 8.1 mph - N/A   Clear
1:14 AM 30.2 °F 23.4 °F 26.6 °F 86% 29.95 in 7.0 mi West 6.9 mph - N/A   Clear
1:34 AM 30.2 °F 21.9 °F 24.8 °F 80% 29.95 in 7.0 mi West 9.2 mph - N/A   Clear
1:54 AM 30.2 °F 21.9 °F 24.8 °F 80% 29.96 in 10.0 mi West 9.2 mph - N/A   Clear
2:14 AM 30.2 °F 21.3 °F 24.8 °F 80% 29.96 in 10.0 mi West 10.4 mph 16.1 mph N/A   Clear
2:34 AM 30.2 °F 21.9 °F 24.8 °F 80% 29.96 in 10.0 mi West 9.2 mph - N/A   Clear
2:54 AM 30.2 °F 21.3 °F 24.8 °F 80% 29.96 in 10.0 mi WNW 10.4 mph - N/A   Clear
3:15 AM 30.2 °F 22.6 °F 24.8 °F 80% 29.97 in 10.0 mi WNW 8.1 mph - N/A   Clear
3:34 AM 28.4 °F 20.4 °F 24.8 °F 86% 29.98 in 10.0 mi WNW 8.1 mph - N/A   Clear
3:54 AM 28.4 °F 20.4 °F 23.0 °F 80% 30.00 in 10.0 mi WNW 8.1 mph - N/A   Clear
4:15 AM 28.4 °F 20.4 °F 23.0 °F 80% 30.00 in 10.0 mi WNW 8.1 mph - N/A   Clear
4:34 AM 28.4 °F 21.2 °F 23.0 °F 80% 30.01 in 10.0 mi WNW 6.9 mph - N/A   Clear
4:54 AM 26.6 °F 18.2 °F 19.4 °F 74% 30.01 in 10.0 mi NW 8.1 mph - N/A   Clear
5:14 AM 26.6 °F 18.2 °F 21.2 °F 80% 30.02 in 10.0 mi NW 8.1 mph - N/A   Clear
5:34 AM 26.6 °F 19.1 °F 19.4 °F 74% 30.04 in 10.0 mi NW 6.9 mph - N/A   Clear
5:54 AM 28.4 °F 22.2 °F 19.4 °F 69% 30.04 in 10.0 mi WNW 5.8 mph - N/A   Clear
6:14 AM 26.6 °F 20.0 °F 19.4 °F 74% 30.06 in 10.0 mi WNW 5.8 mph - N/A   Clear
6:35 AM 26.6 °F 20.0 °F 19.4 °F 74% 30.06 in 10.0 mi WNW 5.8 mph - N/A   Clear
6:54 AM 26.6 °F 19.1 °F 19.4 °F 74% 30.07 in 10.0 mi NW 6.9 mph - N/A   Clear
7:14 AM 26.6 °F 20.0 °F 19.4 °F 74% 30.08 in 10.0 mi WNW 5.8 mph - N/A   Clear
7:34 AM 26.6 °F 20.0 °F 19.4 °F 74% 30.09 in 10.0 mi West 5.8 mph - N/A   Clear
7:54 AM 26.6 °F 19.1 °F 19.4 °F 74% 30.10 in 10.0 mi WNW 6.9 mph - N/A   Clear
8:14 AM 26.6 °F 16.8 °F 19.4 °F 74% 30.10 in 10.0 mi WNW 10.4 mph - N/A   Clear
8:35 AM 26.6 °F 17.5 °F 19.4 °F 74% 30.11 in 10.0 mi WNW 9.2 mph - N/A   Clear
8:54 AM 26.6 °F 18.2 °F 19.4 °F 74% 30.11 in 10.0 mi WNW 8.1 mph - N/A   Scattered Clouds
9:14 AM 28.4 °F 19.1 °F 21.2 °F 74% 30.12 in 10.0 mi WNW 10.4 mph - N/A   Mostly Cloudy
9:34 AM 28.4 °F 17.5 °F 21.2 °F 74% 30.12 in 10.0 mi NNW 13.8 mph - N/A   Mostly Cloudy
9:54 AM 28.4 °F 17.5 °F 19.4 °F 69% 30.13 in 10.0 mi NNW 13.8 mph - N/A   Scattered Clouds
10:14 AM 28.4 °F 17.0 °F 19.4 °F 69% 30.13 in 10.0 mi NW 15.0 mph 19.6 mph N/A   Scattered Clouds
10:34 AM 30.2 °F 20.8 °F 19.4 °F 64% 30.14 in 10.0 mi NW 11.5 mph 18.4 mph N/A   Clear
10:54 AM 30.2 °F 19.8 °F 19.4 °F 64% 30.15 in 10.0 mi NW 13.8 mph - N/A   Clear
11:34 AM 30.2 °F 20.8 °F 19.4 °F 64% 30.16 in 10.0 mi WNW 11.5 mph 17.3 mph N/A   Clear
11:54 AM 30.2 °F 18.5 °F 17.6 °F 60% 30.17 in 10.0 mi NNW 17.3 mph - N/A   Clear
12:14 PM 30.2 °F 18.9 °F 17.6 °F 60% 30.17 in 10.0 mi NW 16.1 mph - N/A   Clear
12:35 PM 30.2 °F 20.2 °F 17.6 °F 60% 30.18 in 10.0 mi NNW 12.7 mph - N/A   Clear
12:54 PM 30.2 °F 19.8 °F 17.6 °F 60% 30.18 in 10.0 mi NW 13.8 mph - N/A   Clear
1:14 PM 30.2 °F 19.3 °F 15.8 °F 55% 30.18 in 10.0 mi North 15.0 mph - N/A   Clear
1:35 PM 30.2 °F 20.8 °F 17.6 °F 60% 30.19 in 10.0 mi NNW 11.5 mph - N/A   Clear
1:54 PM 30.2 °F 20.2 °F 15.8 °F 55% 30.18 in 10.0 mi North 12.7 mph - N/A   Clear
2:14 PM 30.2 °F 20.8 °F 15.8 °F 55% 30.19 in 10.0 mi North 11.5 mph - N/A   Clear
2:35 PM 32.0 °F 22.1 °F 15.8 °F 51% 30.18 in 10.0 mi NW 13.8 mph - N/A   Clear
2:54 PM 32.0 °F 23.6 °F 15.8 °F 51% 30.18 in 10.0 mi NW 10.4 mph 17.3 mph N/A   Clear
3:14 PM 32.0 °F 23.0 °F 15.8 °F 51% 30.18 in 10.0 mi North 11.5 mph - N/A   Clear
3:35 PM 32.0 °F 22.5 °F 17.6 °F 55% 30.18 in 10.0 mi NW 12.7 mph - N/A   Clear
3:54 PM 32.0 °F 24.8 °F 15.8 °F 51% 30.19 in 10.0 mi NW 8.1 mph - N/A   Clear
4:14 PM 32.0 °F 23.6 °F 15.8 °F 51% 30.19 in 10.0 mi WNW 10.4 mph - N/A   Clear
4:35 PM 32.0 °F 23.6 °F 17.6 °F 55% 30.19 in 10.0 mi WNW 10.4 mph - N/A   Clear
4:54 PM 32.0 °F 23.6 °F 15.8 °F 51% 30.19 in 10.0 mi WNW 10.4 mph - N/A   Clear
5:14 PM 30.2 °F 20.8 °F 17.6 °F 60% 30.20 in 10.0 mi WNW 11.5 mph 17.3 mph N/A   Clear
5:35 PM 30.2 °F 21.9 °F 17.6 °F 60% 30.21 in 10.0 mi WNW 9.2 mph - N/A   Clear
5:54 PM 30.2 °F 21.9 °F 17.6 °F 60% 30.21 in 10.0 mi WNW 9.2 mph - N/A   Clear
6:14 PM 30.2 °F 23.4 °F 17.6 °F 60% 30.21 in 10.0 mi NW 6.9 mph - N/A   Clear
6:34 PM 30.2 °F 21.3 °F 17.6 °F 60% 30.21 in 10.0 mi WNW 10.4 mph - N/A   Clear
6:54 PM 28.4 °F 19.7 °F 15.8 °F 59% 30.21 in 10.0 mi NNW 9.2 mph - N/A   Clear
7:14 PM 28.4 °F 20.4 °F 17.6 °F 64% 30.22 in 10.0 mi NW 8.1 mph - N/A   Clear
7:34 PM 28.4 °F 19.7 °F 15.8 °F 59% 30.23 in 10.0 mi WNW 9.2 mph - N/A   Clear
7:54 PM 26.6 °F 18.2 °F 17.6 °F 69% 30.23 in 10.0 mi West 8.1 mph - N/A   Clear
8:14 PM 24.8 °F 14.6 °F 15.8 °F 69% 30.23 in 10.0 mi West 10.4 mph - N/A   Clear
8:34 PM 24.8 °F 16.9 °F 15.8 °F 69% 30.23 in 10.0 mi WNW 6.9 mph - N/A   Clear
8:54 PM 24.8 °F 16.9 °F 15.8 °F 69% 30.23 in 10.0 mi WNW 6.9 mph - N/A   Clear
9:14 PM 21.2 °F 12.6 °F 14.0 °F 74% 30.23 in 10.0 mi NW 6.9 mph - N/A   Clear
9:34 PM 23.0 °F 13.1 °F 14.0 °F 68% 30.24 in 10.0 mi NW 9.2 mph - N/A   Clear
9:54 PM 21.2 °F 12.6 °F 12.2 °F 68% 30.24 in 10.0 mi NW 6.9 mph - N/A   Clear
10:14 PM 21.2 °F 12.6 °F 12.2 °F 68% 30.24 in 10.0 mi WNW 6.9 mph - N/A   Clear
10:34 PM 21.2 °F 11.7 °F 12.2 °F 68% 30.25 in 10.0 mi WNW 8.1 mph - N/A   Clear
10:54 PM 19.4 °F 10.4 °F 10.4 °F 68% 30.25 in 10.0 mi WNW 6.9 mph - N/A   Clear
11:15 PM 17.6 °F 7.3 °F 10.4 °F 73% 30.25 in 10.0 mi NW 8.1 mph - N/A   Clear
11:34 PM 19.4 °F 12.8 °F 10.4 °F 68% 30.25 in 10.0 mi WNW 4.6 mph - N/A   Clear
11:54 PM 19.4 °F 12.8 °F 10.4 °F 68% 30.25 in 10.0 mi West 4.6 mph - N/A   Clear